Timeline UpdatesTrip UpdatesNews PostsPvt PostsTravel TipsAdmin PostsConv PostsFollowed PostsChat RequestsBlog PostsPNR Posts

Disclaimer
Search
 
 
Wed Sep 3, 2014 07:44:33 ISTHomeTrainsΣChainsAtlasPNRForumGalleryNewsFAQTripsMembersLoginFeedback
No Recent News for this Train
Other Trains in the News **new
Latest...
.
Mon Sep 01, 2014 (09:54PM)
⇐ Return Journey: Train# 14016

14015/Sadbhavna Express

Time-Table HAS CHANGED.
Sep 01 (9:54PM)
Change Departure Station:
Change Arrival Station:
Post a Train Travel TipPost a Train Travel Tip **new
Post a Comment/Question/Picture/VideoPost a Comment/Question/Picture/Video
Pantry/Catering
✕ NO Pantry Car
✓ Catering Avbl
Loco/Rake Reversals
MFP/Muzaffarpur Junction (6); SGL/Sagauli (3);
RSA - Rake Sharing
14007/14008
Rake/Coach Composition
TKD WDM#3A:SLR:GEN:GEN:GEN:GEN:GEN:S1:S2:S3:S4:S5:S6:S7:S8:S9:BI:GEN:GEN:GEN:SLR;;Entry# 229760 Author: ✖★яυℓєѕ я 4°• ƒσσℓѕ°° °°•ⓥⓘⓡDiesel Philic°°•ⓥⓘⓡ
Loco
TKD WDM-3A
News    PNR    Forum    Time-Table    Availability    Fare Chart    Map    Arr/Dep History    Trips    Gallery    ΣChains    X/O    Timeline    
Travel Time: 1h 42m    1 halts    Distance: 46 km    Avg Speed: 27 km/hr
Type: Mail/Express
Zone: NR/Northern
Departs @ 03:08
Platform# ???
  T T  
Pilkhua/PKW 
Arrives @ 04:50
Platform# 5
  T T  
Old Delhi Junction/DLI 

1 halts. 8 intermediate Stations between Pilkhua and Old Delhi Junction

Hide intermediate Stations  Show Old Time-Table

#CodeStation NameX/OArrivesAvgDepartsAvgHaltPFDay#KmSpeedElevZoneAddress
1RXLRaxaul Junction (5)  -00:35---1-1194.75088mECREast Champaran, Bihar
1.1MSDHMasnadih  00:45-00:45-  1-1186.0 5079mECRUnchi Dih, Bihar
1.2RGHRamgarhwa (1)  00:52-00:52-  1-1180.5 5075mECRRamgarhwa, Bihar
1.3DRQDharminiya Halt  00:58-00:58-  1-1175.2 5074mECRBela, Bihar
2SGLSagauli (3)O01:10-01:35-25m--1-1165.56973mECRSugauli, Bihar
2.1SRASemra  01:43-01:43-  1-1156.3 6972mECRSemra Tola Bhola, Bihar
2.2CHAHChailaha Halt  01:50-01:50-  1-1148.0 6973mECRChailaha, Bihar
3BMKIBapudham Motihari (2)  01:53-01:58-5m--1-1144.97172mECRMotihari, Bihar
3.1MKIMotihari (2)  01:58-01:58-  1-1144.8 7173mECRMotihari, Bihar
3.2MCOMotihari Court (1)  02:00-02:00-  1-1142.0 7174mECRMotihari Court, Bihar
3.3JDRJiwdhara (1)  02:05-02:05-  1-1136.2 7170mECRJiwdhara, Bihar
3.4BGARBangari  02:10-02:10-  1-1130.6 7170mECRBangari, Bihar
3.5KPCMKuwarchintawanpur Halt  02:12-02:12-  1-1127.8 7165mECRRamgarh, Bihar
3.6PPAPipra (2)O  02:17-02:17-  1-1122.9 7169mECRNational Highway 28, Bihar
3.7KXRKuria  02:20-02:20-  1-1119.0 7168mECRKuria, Bihar
4CAAChakia (1)  02:24 02:25-02:26-2 1m11-1112.84066mECRChakia, Bihar
4.1HRNGHarpur Nag Halt  02:33-02:33-  1-1108.1 4067mECRNational Highway 28, Bihar
5MAIMehsi (1)  02:38 02:39-02:40-2 1m11-1104.25764mECRMehsi, Bihar
5.1MHLMahwal  02:43-02:43-  1-1101.0 5763mECRMuzaffarpur, Bihar
6MTRMotipur (1)  02:53 02:54-02:55-2 1m11-1090.83162mECRRatanpura, Bihar
6.1NRVNariyar  03:05-03:05-  1-1085.6 3159mECRNariyaar, Bihar
6.2PPRHPiprahan Halt  03:13-03:13-  1-1081.6 3160mECRPiprahan, Bihar
6.3KTIKantiX  03:21-03:21-  1-1077.4 3159mECRKanti, Bihar
6.4KVCKaparpura  03:27-03:27-  1-1074.2 3159mECRNational Highway 28, Bihar
7MFPMuzaffarpur Junction (6)X03:45-04:15-30m--1-1064.74457mECRMuzaffarpur, Bihar
7.1RDRam Dayalu Nagar (3)X  04:23-04:23-  1-1058.7 4456mECRMuzaffarpur, Bihar
7.2TURTurki (2)  04:34-04:34-  1-1051.0 4455mECRTurki, Bihar
7.3KHIKurhani (2)X  04:43-04:43-  1-1044.6 4456mECRKurhani, Bihar
7.4GRLGoraul (2)  04:51-04:51-  1-1038.8 4457mECRVAISHALI, Bihar
7.5BNPTBenipatti Pirapur (1)X  04:53-04:53-  1-1036.9 4455mECRGhojaul Rd, Bihar
7.6BNRBhagwanpur (2)  05:02-05:02-  1-1030.5 4460mECRBhagwanpur, Bihar
7.7BTHLBithauli (1)  05:08-05:08-  1-1025.9 4458mECRVaishali, Bihar
7.8SAISarai (1)X  05:14-05:14-  1-1021.5 4454mECRVaishali, Bihar
7.9GWHGhoshawar (1)X  05:23-05:23-  1-1015.4 4454mECRDaulatpur Deoria urf Daulatpur, Bihar
8HJPHajipur Junction (3)  05:29-05:34 05:30-5 1m--1-1010.93355mECR06224-272230, Bihar
9SEESonpur Junction (4)  05:44 05:40-05:47 05:43-3m--1-1005.46956mECRSaran, Bihar
9.1PMUParmanandpur (2)  05:49-05:49-  1-998.7 6956mECRNational Highway 19, Bihar
9.2NYONayagaon (2)  05:53-05:53-  1-994.1 6953mECRNayagaon Sarai, Bihar
9.3STLRSitalpur (2)  05:59-05:59-  1-986.4 6957mECRSitalpur, Bihar
10DGADighwara (2)  06:06 06:03-06:08 06:04-2 1m--1-982.25260mECR06158-281240, Bihar
10.1AABHAmbika Bhawani Halt (1)  06:09-06:09-  1-978.3 5259mECRNH 19, Bihar
10.2ATNRAwatarnagar (2)  06:11-06:11-  1-976.4 5256mECRNH 19, Bihar
10.3PPDAPanchpatia Deoria Halt (1)  06:13-06:13-  1-974.2 5257mECRNH 19, Bihar
10.4BAGLBaragopal (2)  06:17-06:17-  1-971.4 5257mECRSH 46, Bihar
10.5DRIDumri Juara (2)X  06:21-06:21-  1-967.3 5257mECRSaran, Bihar
10.6GJHGoldinganj (2)  06:27-06:27-  1-962.6 5258mECRChapra Patna Highway, Bihar
10.7CIChhapra Kacheri (3)X  06:37-06:37-  1-953.5 5257mNERChhapra, Bihar
11CPRChhapra Junction (6)  06:40-07:00-20m--1-951.36758mNERDistt: Saran, Bihar
11.1GTSTGautamsthan  07:08-07:08-  1-942.5 6761mNERRevelganjghat, Bihar
11.2RVGRevelganj Ghat Halt (1)  07:09-07:09-  1-941.2 6761mNERChhapra, Bihar
11.3MHTManjhi  07:15-07:15-  1-934.6 6761mNERManjhi, Bihar
11.4BKLABakulhaX  07:20-07:20-  1-929.2 6756mNERBakulha, Uttar Pradesh
12SIPSuraimanpur  07:25 07:26-07:27-2 1m--1-922.15860mNERBallia, Uttar Pradesh
12.1DCPDal Chapra  07:33-07:33-  1-916.4 5861mNERDal Chapra, Bihar
12.2ROIReotiX  07:39-07:39-  1-911.1 5864mNERBallia district, Uttar Pradesh
12.3STWSahatwar  07:47-07:47-  1-903.1 5863mNERBallia district, Uttar Pradesh
12.4CATAChhata Aschaura  07:52-07:52-  1-897.9 5861mNERGirija Bhavan, Bihar
12.5BCDBansdih Road  07:56-07:56-  1-894.4 5862mNERBansdih Road/, Uttar Pradesh
13BUIBallia (3)  08:05-08:10-5m31-885.78062mNERBallia, Uttar Pradesh
13.1SVISagarpali  08:14-08:14-  1-880.2 8064mNERNational Highway 19, Uttar Pradesh
13.2PEPPhephna JunctionX  08:18-08:18-  1-875.3 8066mNERBallia, Uttar Pradesh
13.3CBNChit Baragaon  08:23-08:23-  1-869.0 8070mNERChitbaragaon, Uttar Pradesh
13.4TJDTajpur Dehma  08:28-08:28-  1-861.6 8069mNERGosalpur Rd, Uttar Pradesh
13.5KMDRKarimuddin Pur  08:34-08:34-  1-854.0 8070mNERKarimdinpur, Uttar Pradesh
13.6DDDDhondha Dih  08:39-08:39-  1-847.5 8072mNERMDR 94E, Uttar Pradesh
14YFPYusufpurX  08:43 08:44-08:45-2 1m--1-840.64877mNERMDR 94E, Uttar Pradesh
14.1SBKShahbaz Kuli  08:55-08:55-  1-833.1 4873mNERShahbaz Quli, Uttar Pradesh
14.2GZTGhazipur Ghat  09:05-09:05-  1-824.8 4874mNERGhazipur, Uttar Pradesh
15GCTGhazipur City (3)  09:10-09:15-5m21-820.74374mNERGhazipur, Uttar Pradesh
15.1AKSAnkuspur (1)  09:23-09:23-  1-814.9 4373mNERNational Highway 29, Uttar Pradesh
15.2SAHRSaheri (1)  09:31-09:31-  1-809.1 4374mNERNational Highway 29, Uttar Pradesh
15.3NDJNandGanj (1)X  09:40-09:40-  1-803.0 4377mNERNational Highway 29, Uttar Pradesh
15.4BSCKBasuchak (1)  09:47-09:47-  1-797.7 4376mNERBasuchak-Rampur Mangha Rd, Uttar Pradesh
15.5TRNTaraonX  09:52-09:52-  1-794.0 4382mNERTaraon Railway Station, Uttar Pradesh
15.6SYHSaiyedpur Bhitri  10:03-10:03-  1-786.0 4384mNERSaidpur, Uttar Pradesh
16ARJAunrihar Junction (4)X  10:10-10:12-2m--1-781.22980mNERGhazipur, Uttar Pradesh
16.1RJIRajawari  10:29-10:29-  1-772.9 2983mNERNational Highway 29, Uttar Pradesh
16.2KDQKadipur  10:44-10:44-  1-765.9 2984mNERNational Highway 29, Uttar Pradesh
16.3SRNTSarnath (2)  11:05-11:05-  1-755.9 2982mNERVaranasi, Uttar Pradesh
17BCYVaranasi City (3)  11:16 11:19-11:18 11:20-2 1m--1-749.31377mNERVaranasi, Uttar Pradesh
18BSBVaranasi Junction (9)  11:35-11:45-10m31-746.06482mNRVaranasi 221002, Uttar Pradesh
18.1BSBYVaranesi YardX  11:46-11:46-  1-745.0 6481mNRVaranasi, Uttar Pradesh
18.2SOPShivpur (3)  11:50-11:50-  1-740.4 6481mNRVaranasi, Uttar Pradesh
18.3BRPTBirapatti (2)X  11:56-11:56-  1-734.1 6484mNRRd Varanasi Uttar Pradesh, Uttar Pradesh
18.4BTPBabatpur (2)  12:02-12:02-  1-727.5 6484mNRSatomahua-Mangari Rd, Uttar Pradesh
18.5PDRDPindra Road (2)X  12:08-12:08-  1-722.0 6481mNRSatomahua-Mangari Rd, Uttar Pradesh
18.6KSFKhalispur (2)  12:11-12:11-  1-718.2 6483mNRPhulpur, Uttar Pradesh
18.7TLMDTrilochan Mahdo (2)  12:16-12:16-  1-713.0 6483mNRNational Highway 56, Uttar Pradesh
18.8JLLJalalGanj (2)X  12:22-12:22-  1-706.8 6487mNRJalalganj Railway Station, Uttar Pradesh
18.9SIQSarkoni (2)X  12:27-12:27-  1-700.9 6485mNRBandipur, Uttar Pradesh
18.10ZBDZafarabad Junction (4)  12:33-12:33-  1-694.8 6483mNRNational Highway 56, Uttar Pradesh
18.11JNUKJaunpur Kutchary  12:37-12:37-  1-691.2 6485mNRJaunpur, Uttar Pradesh
19JOPJaunpur City (3)  12:38 12:39-12:40-2 1m31-688.55387mNRJaunpur, Uttar Pradesh
19.1BKSABakhsha (1)  12:52-12:52-  1-677.6 5387mNRBaksha, Uttar Pradesh
19.2SVZSarai Harkhu (1)  13:01-13:01-  1-669.5 5389mNRNational Highway 56, Uttar Pradesh
19.3SKNSri Krishna Nagar (2)  13:12-13:12-  1-660.6 5392mNRBadlapur, Uttar Pradesh
19.4HRPGHarpalGanj (1)X  13:21-13:21-  1-652.6 5390mNRNational Highway 56, Uttar Pradesh
19.5NIMGNima Gopalpur Halt (2)  13:28-13:28-  1-645.6 5393mNRShailkha, Uttar Pradesh
19.6KEPRKoiripur (1)  13:33-13:33-  1-641.9 5396mNRNational Highway 56, Uttar Pradesh
19.7CHDAChanda Halt  13:39-13:39-  1-636.3 53100mNRChanda, Uttar Pradesh
19.8MWPMahrani Pachhim (1)  13:43-13:43-  1-632.7 5390mNRNational Highway 56, Uttar Pradesh
20LBALambhua (1)  13:54 13:52-13:55 13:53-1m11-624.71697mNRLambhua, Uttar Pradesh
20.1BDINBhadaiyan (1)O  14:19-14:19-  1-617.8 1697mNRBhadaiya, Uttar Pradesh
20.2PKXPakhruli (2)X  14:41-14:41-  1-611.8 16101mNRSahupur, Uttar Pradesh
21SLNSultanpur Junction (3)  15:15-15:30-15m31-602.77699mNRSultanpur., Uttar Pradesh
21.1BDKNBandhua Kalan (2)  15:37-15:37-  1-594.1 76106mNRNational Highway 56, Uttar Pradesh
21.2SHNGShivnagar (2)  15:47-15:47-  1-580.7 76105mNRNational Highway 56, Uttar Pradesh
22MFKAMusafir Khana (3)  15:55-15:56-1m11-571.267105mNRMusfirKhana, Uttar Pradesh
22.1AHZAdhinpur (2)  16:04-16:04-  1-562.7 67109mNRNational Highway 56, Uttar Pradesh
22.2WGJWaris Ganj (1)  16:07-16:07-  1-559.2 67114mNRWaris Ganj, Uttar Pradesh
23NHHNihalgarh (3)  16:13-16:14-1m--1-552.337108mNRJagdishpur, Uttar Pradesh
23.1SYWSindurwa (3)X  16:26-16:26-  1-545.1 37108mNRSindurwa Railway Station, Uttar Pradesh
23.2AKJAkbarGanj (1)  16:39-16:39-  1-537.0 37112mNRSH 31, Uttar Pradesh
23.3CHBSChaubisi (1)  16:53-16:53-  1-528.6 37119mNRNational Highway 56, Uttar Pradesh
23.4HGHHaidergarh (2)  17:07-17:07-  1-520.1 37116mNRState Highway 13, Uttar Pradesh
23.5TEGTirbediganj (2)  17:19-17:19-  1-512.4 37116mNRMangalpur, Uttar Pradesh
23.6CDRLChhandrauli (2)X  17:33-17:33-  1-504.2 37120mNRChhandrauli, Uttar Pradesh
23.7RMNRRahmatnagar (2)X  17:48-17:48-  1-495.3 37117mNRAmethi, Uttar Pradesh
23.8APGAnupganj (2)  17:57-17:57-  1-489.7 37118mNRBaliyakhera, Uttar Pradesh
23.9BKKSBakkas (2)X  18:10-18:10-  1-481.5 37121mNRBakas, Uttar Pradesh
23.10UTRUtraitia Junction (2)  18:20-18:20-  1-475.5 37124mNRLucknow, Uttar Pradesh
23.11BHAWBlock Hut A  18:27-18:27-  1-471.0 37121mNRLucknow, Uttar Pradesh
23.12LBHDilkusha Cabin  18:33-18:33-  1-467.5 37116mNRLucknow, Uttar Pradesh
24LKOLucknow Charbagh (9)X  18:40-18:50-10m71-463.415123mNR226004, Uttar Pradesh
24.1LNWTLucknow West  18:57-18:57-  1-461.7 15123mNRLucknow, Uttar Pradesh
25AMGAlamnagar (3)  19:18 19:19-19:20-2 1m--1-456.380126mNRLucknow, Uttar Pradesh
25.1KKJKakori (3)  19:26-19:26-  1-448.8 80129mNRSH 25, Uttar Pradesh
25.2MLDMalihabadX  19:33-19:33-  1-439.1 80130mNRMalihabad, Uttar Pradesh
25.3DILDilawarnagar  19:37-19:37-  1-433.5 80133mNRSH 25, Uttar Pradesh
25.4RBDRahimabad  19:43-19:43-  1-425.9 80132mNRSH 25, Uttar Pradesh
25.5SANSandila (3)X  19:51-19:51-  1-414.9 80132mNRSandila, Uttar Pradesh
25.6UTAUmar TaliX  19:55-19:55-  1-409.6 80135mNRHardoi, Uttar Pradesh
25.7DLQDalelnagar  20:00-20:00-  1-403.2 80136mNRSH 25, Uttar Pradesh
25.8BLMBalamu Junction (4)X  20:06-20:06-  1-394.5 80139mNRBalamau, Uttar Pradesh
25.9BGHBaghauliX  20:13-20:13-  1-385.8 80141mNRsharda nehar, Uttar Pradesh
25.10MSTMasitXO  20:18-20:18-  1-378.9 80141mNRSH 25, Uttar Pradesh
25.11KARKarna  20:24-20:24-  1-371.4 80143mNRHardoi, Uttar Pradesh
26HRIHardoi (5)  20:27 20:31-20:32-5 1m11-361.554146mNRHardoi, Uttar Pradesh
26.1KUFKaurha  20:41-20:41-  1-353.1 54148mNRSH 25, Uttar Pradesh
26.2BEGBehtagokulX  20:51-20:51-  1-344.2 54152mNRBehtagokul, Uttar Pradesh
26.3TDPTodarpur  20:58-20:58-  1-337.8 54147mNRSH 25, Uttar Pradesh
26.4SHRMSharmaX  21:01-21:01-  1-335.2 54150mNRSH 25, Uttar Pradesh
26.5AJIAnjhi Shahabad  21:08-21:08-  1-329.3 54148mNRAnjhi Shahabad, Uttar Pradesh
26.6AIGAlgawanX  21:15-21:15-  1-323.0 54152mNRAlgawan, Uttar Pradesh
26.7KHKahiliya  21:24-21:24-  1-314.5 54152mNRSH 25, Uttar Pradesh
26.8PRPMPt Ram Prasad Bismil  21:29-21:29-  1-310.1 54154mNRState Highway 25, Uttar Pradesh
26.9ROZARoza Junction (4)  21:34-21:34-  1-305.9 54156mNRShahjahanpur, Uttar Pradesh
26.10SXKShahjahanpur Court  21:41-21:41-  1-299.5 54160mNRShahjahanpur, Uttar Pradesh
27SPNShahjahanpur Junction (3)X  21:42-21:47-5m--1-298.564156mNRShahjahanpur, Uttar Pradesh
27.1BTRABanthra  21:55-21:55-  1-290.1 64154mNRNH 24, Uttar Pradesh
27.2BHDHBahadurpur Halt  22:00-22:00-  1-284.5 64154mNRNH 24, Uttar Pradesh
27.3TLHTilhar  22:04-22:04-  1-280.3 64163mNRTilhar, Uttar Pradesh
27.4MILAMilakpur HaltX  22:08-22:08-  1-276.7 64158mNRDhanela, Uttar Pradesh
27.5MKMiranpur Katra  22:13-22:13-  1-270.6 64162mNRShahjahanpur, Uttar Pradesh
27.6KSRKKasrak Halt  22:13-22:13-  1-270.4 64162mNRKatra, Uttar Pradesh
27.7BLPUBilpur  22:20-22:20-  1-263.4 64161mNRFatehganj, Uttar Pradesh
27.8TSATisuaX  22:27-22:27-  1-256.4 64165mNRNational Highway 24, Uttar Pradesh
27.9PMRPitambarpur  22:35-22:35-  1-247.9 64171mNRPitambarpur, Uttar Pradesh
27.10RYSRasuriyaX  22:44-22:44-  1-238.4 64174mNRNH 24, Uttar Pradesh
27.11CHTIChanehti Junction  22:50-22:50-  1-231.8 64168mNRBareilly, Uttar Pradesh
27.12BEBareilly Junction (4)  22:54-22:54-  1-228.0 64174mNRBareilly, Uttar Pradesh
27.13RGBRamganga  23:00-23:00-  1-221.5 64170mNRState Highway 33, Uttar Pradesh
27.14RSCRamganga South Cabin  23:00-23:00-  1-220.9 64162mNERFaridapur Thakuran, Uttar Pradesh
27.15BTGBasharatGanj  23:08-23:08-  1-212.4 64167mNRBareilly, Uttar Pradesh
27.16NSUNisui  23:13-23:13-  1-207.7 64167mNRAonla- Bareilly Link Rd, Uttar Pradesh
28AOAonla (2)  23:18 23:19-23:20-2 1m--1-201.156176mNRDist. Bareilly, Uttar Pradesh
28.1RBKReoti B Khera (1)  23:26-23:26-  1-195.4 56177mNRReoti B Khera, Uttar Pradesh
28.2KEGKarengi  23:34-23:34-  1-188.4 56183mNRKarengi, Uttar Pradesh
28.3DUBDabtara (2)  23:39-23:39-  1-183.1 56183mNRBisauli, Uttar Pradesh
28.4PRKEPurua Khera  23:45-23:45-  1-177.7 56182mNRDist. Badaun, Uttar Pradesh
28.5AFRAsafpur  23:50-23:50-  1-172.6 56186mNRDist. Badaun, Uttar Pradesh
28.6SSKASisarka  23:57-23:57-  1-166.3 56188mNRState Highway 43, Uttar Pradesh
29CHChandausi Junction (3)  00:05-00:10-5m--2-158.944193mNRChandausi, Uttar Pradesh
29.1GTFGumthal  00:22-00:22-  2-150.3 44192mNRRaja Ka Sahaspur, Uttar Pradesh
29.2KZSKuakhera Halt  00:26-00:26-  2-147.4 44194mNRChandausi, Uttar Pradesh
29.3JRJJargaon  00:30-00:30-  2-144.7 44190mNRChandausi, Uttar Pradesh
29.4RJKRaja Ka Sahaspur  00:37-00:37-  2-139.0 44196mNRBilari, Uttar Pradesh
29.5KDKundarkhi  00:45-00:45-  2-133.2 44198mNRKundarki, Uttar Pradesh
29.6FRDFarhedi  00:51-00:51-  2-128.9 44201mNRMoradabad- Chandausi Rd, Uttar Pradesh
29.7MCVMacharya  00:55-00:55-  2-126.4 44195mNRKundarkhi, Uttar Pradesh
30MBMoradabad Junction (7)X  01:15 01:10-01:25 01:20-10m52-115.163201mNRMoradabad, Uttar Pradesh
30.1LPBLodipur Bishanpur  01:32-01:32-  2-102.9 63202mNRBishanpur, Uttar Pradesh
30.2LDPLodipur Bishnupur (2)X  01:32-01:32-  2-102.8 63200mNRHarthala Station Rd, Uttar Pradesh
30.3HKPHakimpur (2)  01:36-01:36-  2-98.5 63204mNRSH 78, Uttar Pradesh
30.4CKLTChak Kali Lait (2)  01:39-01:39-  2-94.9 63211mNRSH 78, Uttar Pradesh
30.5KIVKaialsa (2)  01:43-01:43-  2-91.0 63211mNRSH 78, Uttar Pradesh
31AMROAmroha (3)X  01:56 01:49-01:58 01:50-2 1m22-84.673217mNRAmroha, Uttar Pradesh
31.1KFPRKafurpur  01:59-01:59-  2-73.1 73215mNRRajabpur, Uttar Pradesh
31.2MHHRMahesra (2)  02:02-02:02-  2-70.0 73214mNRNH 24, Uttar Pradesh
31.3GJLGajraula Junction (4)  02:09-02:09-  2-61.8 73211mNRGujraula, Uttar Pradesh
31.4KHEKankather  02:15-02:15-  2-54.1 73204mNRNational Highway 24, Uttar Pradesh
31.5GGBGarhmuktesar Bridge (1)X  02:20-02:20-  2-47.8 73202mNRNH-24, Uttar Pradesh
31.6GMSGarhmuktesar (3)  02:26-02:26-  2-41.0 73218mNRGarhmukteshwar, Uttar Pradesh
31.7SMBLSimbhooli (2)  02:33-02:33-  2-31.6 73217mNRSimbhauli, Uttar Pradesh
31.8SKHRSikhera Mb Halt  02:36-02:36-  2-28.0 73215mNRRajpur, Uttar Pradesh
31.9QXRKuchesar Road  02:39-02:39-  2-24.5 73216mNRHapur Rd, Uttar Pradesh
31.10BBOBabugarh  02:44-02:44-  2-18.8 73211mNRGhaziabad, Uttar Pradesh
32HPUHapur Junction (4)  03:03 02:50-03:05 02:52-2m--2-11.245214mNRHapur Jn., Uttar Pradesh
32.1KKMBKastla Kasmabad Halt (2)  03:01-03:01-  2-4.4 45214mNRHapur Rd, Uttar Pradesh
33PKW»Pilkhua (3)»X  03:16 03:07-03:18 03:08-2 1m--20.030218mNRPilkhuwa, Uttar Pradesh
33.1DSDasna (1)  03:33-03:33-  212.3 30216mNRHapur Rd, Uttar Pradesh
33.2AKNRAdhyatmik Nagar (2)  03:38-03:38-  214.9 30213mNRAdhyatmik, Uttar Pradesh
33.3MFHMahrauli (3)  03:45-03:45-  218.4 30218mNRGhaziabad, Uttar Pradesh
34GZBGhaziabad Junction (6)  04:00-04:02-2m3225.625217mNRGhaziabad, Uttar Pradesh
34.1SBBSahibabad Junction (5)  04:18-04:18-  232.3 25209mNRGhaziabad, Uttar Pradesh
34.2DSAPDelhi Shahdara A Panel  04:28-04:28-  236.6 25208mNRVivek Vihar Phase I, Delhi NCT
34.3VVBVivek Vihar (2)  04:29-04:29-  236.8 25209mNRJhilmil Industrial Area, Delhi NCT
34.4DSAShahdara Junction (4)  04:35-04:35-  239.2 25212mNRCircular Rd, Delhi NCT
35DLI•Old Delhi Junction (16)•  04:50--5245.6-219mNRNear Chandni Chowk Metro Station, Delhi NCT
Scroll to Top
Scroll to Bottom